Weather in Kharj

Saudi Arabia     24°09′37″N   47°19′55″E
temp.,
°C
wind,
m/s
gust,
m/s
humid.,
%
clouds,
%
prec.,
mm/h
press.,
hPa
HPBL,
m
9 december, thu
thu900:00+16sse3329100 0.0 102013
03:00+15s2232100 0.0 102011
06:00+14s33325 0.0 102111
09:00+20s342560 0.0 1022283
12:00+25s2219100 0.0 1019792
15:00+26ene11165 0.0 10181127
18:00+22e442091 0.0 101926
21:00+20se3324100 0.0 102123
10 december, fri
fri1000:00+16se22315 0.0 102111
03:00+14sse113594 0.0 102111
06:00+14ese003731 0.0 102211
09:00+20nne23255 0.0 1024341
12:00+23ne3320100 0.0 10221136
15:00+24ne4418100 0.0 10201417
18:00+20ne552410 0.0 102245
21:00+16ne45355 0.0 102347
11 december, sat
sat1100:00+15ne33375 0.0 102314
03:00+13n223795 0.0 102210
06:00+13n33395 0.0 102413
09:00+17nne333157 0.0 1025325
12:00+21nne22241 0.0 1022978
15:00+23ne22210 0.0 10201229
18:00+19ene22270 0.0 102111
21:00+17ene44335 0.0 102323
12 december, sun
sun1200:00+15nne233787 0.0 102311
03:00+13n33395 0.0 102211
06:00+13n23395 0.0 102311
09:00+17n222816 0.0 1025266
12:00+22wnw222227 0.0 1022840
15:00+24nnw23190 0.0 10191339
18:00+19ne332491 0.0 102013
21:00+16ne3325100 0.0 102216
13 december, mon
mon1300:00+14nne222967 0.0 102110
03:00+13n22335 0.0 102110
06:00+13n22345 0.0 102210
09:00+18n22250 0.0 1022265
12:00+22nnw22183 0.0 1019907
15:00+24nnw2315100 0.0 10171279
18:00+20ne3317100 0.0 101815
21:00+17e3418100 0.0 101921